Time,TemperatureF,DewpointF,PressureIn,WindDirection,WindDirectionDegrees,WindSpeedMPH,WindSpeedGustMPH,Humidity,HourlyPrecipIn,Conditions,Clouds,dailyrainin,SoftwareType,DateUTC
2013-03-15 00:00:00,57.3,31.9,30.08,ESE,107,8.0,8.0,38,0.00,,,0.00,Wunderground v.1.15,2013-03-15 05:00:00,
2013-03-15 00:05:00,57.0,32.3,30.07,ESE,113,7.0,9.0,39,0.00,,,0.00,Wunderground v.1.15,2013-03-15 05:05:00,
2013-03-15 00:11:00,57.4,32.0,30.07,ESE,113,8.0,12.0,38,0.00,,,0.00,Wunderground v.1.15,2013-03-15 05:11:00,
2013-03-15 00:16:00,57.6,32.2,30.07,ESE,117,10.0,12.0,38,0.00,,,0.00,Wunderground v.1.15,2013-03-15 05:16:00,
2013-03-15 00:21:00,57.2,32.4,30.07,ESE,121,11.0,11.0,39,0.00,,,0.00,Wunderground v.1.15,2013-03-15 05:21:00,
2013-03-15 00:27:00,56.6,31.9,30.07,SE,129,10.0,11.0,39,0.00,,,0.00,Wunderground v.1.15,2013-03-15 05:27:00,
2013-03-15 00:32:00,56.3,32.3,30.07,SE,137,10.0,14.0,40,0.00,,,0.00,Wunderground v.1.15,2013-03-15 05:32:00,
2013-03-15 00:38:00,55.8,32.4,30.07,SE,133,12.0,14.0,41,0.00,,,0.00,Wunderground v.1.15,2013-03-15 05:38:00,
2013-03-15 00:43:00,55.2,32.5,30.06,SE,132,12.0,12.0,42,0.00,,,0.00,Wunderground v.1.15,2013-03-15 05:43:00,
2013-03-15 00:49:00,54.9,32.2,30.06,SE,132,11.0,12.0,42,0.00,,,0.00,Wunderground v.1.15,2013-03-15 05:49:00,
2013-03-15 00:54:00,54.5,32.4,30.06,SE,132,9.0,11.0,43,0.00,,,0.00,Wunderground v.1.15,2013-03-15 05:54:00,
2013-03-15 01:00:00,54.1,32.1,30.06,SE,132,8.0,8.0,43,0.00,,,0.00,Wunderground v.1.15,2013-03-15 06:00:00,
2013-03-15 01:05:00,54.1,32.1,30.06,SE,132,7.0,8.0,43,0.00,,,0.00,Wunderground v.1.15,2013-03-15 06:05:00,
2013-03-15 01:11:00,54.5,31.9,30.05,ESE,120,8.0,9.0,42,0.00,,,0.00,Wunderground v.1.15,2013-03-15 06:11:00,
2013-03-15 01:17:00,55.3,32.0,30.05,ESE,104,8.0,9.0,41,0.00,,,0.00,Wunderground v.1.15,2013-03-15 06:17:00,
2013-03-15 01:23:00,55.6,32.2,30.04,SSE,147,8.0,10.0,41,0.00,,,0.00,Wunderground v.1.15,2013-03-15 06:23:00,
2013-03-15 01:28:00,55.5,32.2,30.04,SSE,150,8.0,12.0,41,0.00,,,0.00,Wunderground v.1.15,2013-03-15 06:28:00,
2013-03-15 01:33:00,55.6,32.2,30.04,SE,146,9.0,11.0,41,0.00,,,0.00,Wunderground v.1.15,2013-03-15 06:33:00,
2013-03-15 01:39:00,56.1,32.1,30.03,SSE,149,10.0,12.0,40,0.00,,,0.00,Wunderground v.1.15,2013-03-15 06:39:00,
2013-03-15 01:44:00,56.2,32.2,30.03,SSE,155,10.0,12.0,40,0.00,,,0.00,Wunderground v.1.15,2013-03-15 06:44:00,
2013-03-15 01:50:00,56.3,32.3,30.03,SSE,154,10.0,13.0,40,0.00,,,0.00,Wunderground v.1.15,2013-03-15 06:50:00,
2013-03-15 01:55:00,55.7,32.3,30.03,South,172,11.0,14.0,41,0.00,,,0.00,Wunderground v.1.15,2013-03-15 06:55:00,
2013-03-15 02:00:00,54.6,31.9,30.02,South,176,12.0,16.0,42,0.00,,,0.00,Wunderground v.1.15,2013-03-15 07:00:00,
2013-03-15 02:06:00,53.8,32.4,30.02,South,173,14.0,16.0,44,0.00,,,0.00,Wunderground v.1.15,2013-03-15 07:06:00,
2013-03-15 02:12:00,53.2,32.4,30.02,South,171,14.0,15.0,45,0.00,,,0.00,Wunderground v.1.15,2013-03-15 07:12:00,
2013-03-15 02:18:00,52.8,32.0,30.01,South,169,12.0,15.0,45,0.00,,,0.00,Wunderground v.1.15,2013-03-15 07:18:00,
2013-03-15 02:23:00,52.4,32.2,30.01,South,175,11.0,13.0,46,0.00,,,0.00,Wunderground v.1.15,2013-03-15 07:23:00,
2013-03-15 02:28:00,52.1,31.9,30.01,South,169,10.0,13.0,46,0.00,,,0.00,Wunderground v.1.15,2013-03-15 07:28:00,
2013-03-15 02:33:00,52.0,32.4,30.01,South,179,10.0,13.0,47,0.00,,,0.00,Wunderground v.1.15,2013-03-15 07:33:00,
2013-03-15 02:38:00,52.1,32.5,30.01,South,184,10.0,13.0,47,0.00,,,0.00,Wunderground v.1.15,2013-03-15 07:38:00,
2013-03-15 02:44:00,52.5,32.3,30.01,South,178,10.0,15.0,46,0.00,,,0.00,Wunderground v.1.15,2013-03-15 07:44:00,
2013-03-15 02:50:00,53.7,32.8,30.00,South,176,12.0,12.0,45,0.00,,,0.00,Wunderground v.1.15,2013-03-15 07:50:00,
2013-03-15 02:56:00,53.7,32.8,30.00,South,186,10.0,14.0,45,0.00,,,0.00,Wunderground v.1.15,2013-03-15 07:56:00,
2013-03-15 03:01:00,53.9,32.5,29.99,South,184,9.0,10.0,44,0.00,,,0.00,Wunderground v.1.15,2013-03-15 08:01:00,
2013-03-15 03:06:00,53.8,32.4,29.99,South,190,10.0,13.0,44,0.00,,,0.00,Wunderground v.1.15,2013-03-15 08:06:00,
2013-03-15 03:12:00,53.1,32.3,29.99,SSW,192,9.0,10.0,45,0.00,,,0.00,Wunderground v.1.15,2013-03-15 08:12:00,
2013-03-15 03:17:00,52.4,32.2,29.99,SSW,192,7.0,10.0,46,0.00,,,0.00,Wunderground v.1.15,2013-03-15 08:17:00,
2013-03-15 03:22:00,52.4,32.2,29.99,SSW,192,5.0,6.0,46,0.00,,,0.00,Wunderground v.1.15,2013-03-15 08:22:00,
2013-03-15 03:27:00,52.8,32.6,29.99,SSW,211,6.0,12.0,46,0.00,,,0.00,Wunderground v.1.15,2013-03-15 08:27:00,
2013-03-15 03:33:00,53.1,32.3,29.99,SSW,199,10.0,17.0,45,0.00,,,0.00,Wunderground v.1.15,2013-03-15 08:33:00,
2013-03-15 03:38:00,52.5,32.3,29.98,SSW,200,13.0,18.0,46,0.00,,,0.00,Wunderground v.1.15,2013-03-15 08:38:00,
2013-03-15 03:44:00,52.0,32.4,29.98,SSW,200,10.0,13.0,47,0.00,,,0.00,Wunderground v.1.15,2013-03-15 08:44:00,
2013-03-15 03:49:00,51.6,32.0,29.98,SSW,200,6.0,13.0,47,0.00,,,0.00,Wunderground v.1.15,2013-03-15 08:49:00,
2013-03-15 03:54:00,51.4,32.3,29.97,SSW,200,6.0,7.0,48,0.00,,,0.00,Wunderground v.1.15,2013-03-15 08:54:00,
2013-03-15 04:00:00,51.2,32.2,29.97,SSW,200,7.0,7.0,48,0.00,,,0.00,Wunderground v.1.15,2013-03-15 09:00:00,
2013-03-15 04:06:00,50.8,31.8,29.97,SSW,200,7.0,7.0,48,0.00,,,0.00,Wunderground v.1.15,2013-03-15 09:06:00,
2013-03-15 04:11:00,50.6,31.6,29.97,SSW,210,8.0,8.0,48,0.00,,,0.00,Wunderground v.1.15,2013-03-15 09:11:00,
2013-03-15 04:17:00,50.8,31.8,29.96,SSW,210,8.0,9.0,48,0.00,,,0.00,Wunderground v.1.15,2013-03-15 09:17:00,
2013-03-15 04:22:00,51.0,32.0,29.95,SSW,213,9.0,10.0,48,0.00,,,0.00,Wunderground v.1.15,2013-03-15 09:22:00,
2013-03-15 04:28:00,51.0,32.0,29.95,SSW,213,9.0,10.0,48,0.00,,,0.00,Wunderground v.1.15,2013-03-15 09:28:00,
2013-03-15 04:33:00,50.7,31.7,29.95,SW,216,8.0,9.0,48,0.00,,,0.00,Wunderground v.1.15,2013-03-15 09:33:00,
2013-03-15 04:39:00,50.4,31.4,29.95,SW,216,8.0,9.0,48,0.00,,,0.00,Wunderground v.1.15,2013-03-15 09:39:00,
2013-03-15 04:45:00,50.3,31.8,29.95,SW,230,9.0,11.0,49,0.00,,,0.00,Wunderground v.1.15,2013-03-15 09:45:00,
2013-03-15 04:51:00,50.8,31.8,29.95,WSW,238,10.0,12.0,48,0.00,,,0.00,Wunderground v.1.15,2013-03-15 09:51:00,
2013-03-15 04:57:00,51.2,32.2,29.94,WSW,242,11.0,12.0,48,0.00,,,0.00,Wunderground v.1.15,2013-03-15 09:57:00,
2013-03-15 05:02:00,51.1,32.1,29.94,SW,236,11.0,11.0,48,0.00,,,0.00,Wunderground v.1.15,2013-03-15 10:02:00,
2013-03-15 05:07:00,50.8,31.8,29.94,SW,236,11.0,13.0,48,0.00,,,0.00,Wunderground v.1.15,2013-03-15 10:07:00,
2013-03-15 05:13:00,50.4,31.9,29.94,WSW,240,11.0,11.0,49,0.00,,,0.00,Wunderground v.1.15,2013-03-15 10:13:00,
2013-03-15 05:18:00,50.0,32.1,29.94,WSW,240,10.0,12.0,50,0.00,,,0.00,Wunderground v.1.15,2013-03-15 10:18:00,
2013-03-15 05:24:00,49.7,31.8,29.93,WSW,240,8.0,10.0,50,0.00,,,0.00,Wunderground v.1.15,2013-03-15 10:24:00,
2013-03-15 05:29:00,49.6,31.7,29.93,WSW,240,7.0,10.0,50,0.00,,,0.00,Wunderground v.1.15,2013-03-15 10:29:00,
2013-03-15 05:35:00,49.9,32.0,29.93,WSW,240,7.0,9.0,50,0.00,,,0.00,Wunderground v.1.15,2013-03-15 10:35:00,
2013-03-15 05:40:00,49.9,32.0,29.93,WSW,240,7.0,7.0,50,0.00,,,0.00,Wunderground v.1.15,2013-03-15 10:40:00,
2013-03-15 05:46:00,49.9,32.0,29.93,WSW,240,8.0,10.0,50,0.00,,,0.00,Wunderground v.1.15,2013-03-15 10:46:00,
2013-03-15 05:51:00,50.0,32.1,29.93,WSW,252,9.0,9.0,50,0.00,,,0.00,Wunderground v.1.15,2013-03-15 10:51:00,
2013-03-15 05:57:00,49.6,31.7,29.93,WSW,254,8.0,9.0,50,0.00,,,0.00,Wunderground v.1.15,2013-03-15 10:57:00,
2013-03-15 06:02:00,49.1,31.7,29.93,West,261,7.0,9.0,51,0.00,,,0.00,Wunderground v.1.15,2013-03-15 11:02:00,
2013-03-15 06:08:00,48.7,31.8,29.93,West,270,9.0,10.0,52,0.00,,,0.00,Wunderground v.1.15,2013-03-15 11:08:00,
2013-03-15 06:13:00,48.4,31.6,29.94,West,270,9.0,9.0,52,0.00,,,0.00,Wunderground v.1.15,2013-03-15 11:13:00,
2013-03-15 06:19:00,47.9,31.6,29.93,West,270,8.0,9.0,53,0.00,,,0.00,Wunderground v.1.15,2013-03-15 11:19:00,
2013-03-15 06:24:00,47.3,31.5,29.93,West,270,9.0,10.0,54,0.00,,,0.00,Wunderground v.1.15,2013-03-15 11:24:00,
2013-03-15 06:30:00,47.0,31.7,29.93,West,270,10.0,11.0,55,0.00,,,0.00,Wunderground v.1.15,2013-03-15 11:30:00,
2013-03-15 06:36:00,46.8,31.9,29.92,West,270,11.0,11.0,56,0.00,,,0.00,Wunderground v.1.15,2013-03-15 11:36:00,
2013-03-15 06:41:00,46.8,31.9,29.92,West,270,11.0,11.0,56,0.00,,,0.00,Wunderground v.1.15,2013-03-15 11:41:00,
2013-03-15 06:47:00,46.0,32.0,29.92,West,270,11.0,11.0,58,0.00,,,0.00,Wunderground v.1.15,2013-03-15 11:47:00,
2013-03-15 06:52:00,45.6,31.7,29.92,West,271,11.0,11.0,58,0.00,,,0.00,Wunderground v.1.15,2013-03-15 11:52:00,
2013-03-15 06:58:00,45.2,31.7,29.92,West,270,11.0,11.0,59,0.00,,,0.00,Wunderground v.1.15,2013-03-15 11:58:00,
2013-03-15 07:04:00,44.7,31.7,29.92,West,271,11.0,11.0,60,0.00,,,0.00,Wunderground v.1.15,2013-03-15 12:04:00,
2013-03-15 07:10:00,44.7,31.7,29.92,West,270,11.0,11.0,60,0.00,,,0.00,Wunderground v.1.15,2013-03-15 12:10:00,
2013-03-15 07:16:00,44.4,31.8,29.92,West,271,11.0,12.0,61,0.00,,,0.00,Wunderground v.1.15,2013-03-15 12:16:00,
2013-03-15 07:21:00,44.7,32.1,29.92,West,269,11.0,12.0,61,0.00,,,0.00,Wunderground v.1.15,2013-03-15 12:21:00,
2013-03-15 07:27:00,45.1,32.0,29.92,West,269,11.0,12.0,60,0.00,,,0.00,Wunderground v.1.15,2013-03-15 12:27:00,
2013-03-15 07:32:00,45.6,32.1,29.91,West,268,11.0,11.0,59,0.00,,,0.00,Wunderground v.1.15,2013-03-15 12:32:00,
2013-03-15 07:38:00,45.5,32.0,29.91,West,268,11.0,12.0,59,0.00,,,0.00,Wunderground v.1.15,2013-03-15 12:38:00,
2013-03-15 07:43:00,45.6,32.1,29.92,West,269,11.0,11.0,59,0.00,,,0.00,Wunderground v.1.15,2013-03-15 12:43:00,
2013-03-15 07:48:00,45.9,31.9,29.92,West,271,12.0,14.0,58,0.00,,,0.00,Wunderground v.1.15,2013-03-15 12:48:00,
2013-03-15 07:54:00,45.6,32.1,29.92,West,270,13.0,13.0,59,0.00,,,0.00,Wunderground v.1.15,2013-03-15 12:54:00,
2013-03-15 07:59:00,45.7,32.2,29.92,West,271,13.0,15.0,59,0.00,,,0.00,Wunderground v.1.15,2013-03-15 12:59:00,
2013-03-15 08:05:00,46.0,32.0,29.91,West,264,14.0,15.0,58,0.00,,,0.00,Wunderground v.1.15,2013-03-15 13:05:00,
2013-03-15 08:10:00,45.9,32.4,29.91,West,262,13.0,13.0,59,0.00,,,0.00,Wunderground v.1.15,2013-03-15 13:10:00,
2013-03-15 08:16:00,45.9,32.4,29.91,West,262,13.0,13.0,59,0.00,,,0.00,Wunderground v.1.15,2013-03-15 13:16:00,
2013-03-15 08:22:00,45.9,31.9,29.91,West,262,13.0,13.0,58,0.00,,,0.00,Wunderground v.1.15,2013-03-15 13:22:00,
2013-03-15 08:27:00,45.3,31.8,29.91,West,266,12.0,13.0,59,0.00,,,0.00,Wunderground v.1.15,2013-03-15 13:27:00,
2013-03-15 08:33:00,45.0,31.9,29.91,West,263,12.0,12.0,60,0.00,,,0.00,Wunderground v.1.15,2013-03-15 13:33:00,
2013-03-15 08:38:00,45.2,32.1,29.90,West,263,11.0,12.0,60,0.00,,,0.00,Wunderground v.1.15,2013-03-15 13:38:00,
2013-03-15 08:44:00,45.0,32.3,29.91,West,263,10.0,11.0,61,0.00,,,0.00,Wunderground v.1.15,2013-03-15 13:44:00,
2013-03-15 08:50:00,45.1,32.0,29.91,West,263,11.0,11.0,60,0.00,,,0.00,Wunderground v.1.15,2013-03-15 13:50:00,
2013-03-15 08:55:00,45.0,32.3,29.91,West,261,11.0,11.0,61,0.00,,,0.00,Wunderground v.1.15,2013-03-15 13:55:00,
2013-03-15 09:00:00,44.7,32.5,29.90,West,266,10.0,10.0,62,0.00,,,0.00,Wunderground v.1.15,2013-03-15 14:00:00,
2013-03-15 09:06:00,45.0,32.8,29.90,West,266,10.0,11.0,62,0.00,,,0.00,Wunderground v.1.15,2013-03-15 14:06:00,
2013-03-15 09:12:00,44.9,32.7,29.91,West,268,10.0,10.0,62,0.00,,,0.00,Wunderground v.1.15,2013-03-15 14:12:00,
2013-03-15 09:18:00,44.9,33.5,29.90,West,272,10.0,11.0,64,0.00,,,0.00,Wunderground v.1.15,2013-03-15 14:18:00,
2013-03-15 09:23:00,45.1,33.6,29.90,West,271,11.0,11.0,64,0.00,,,0.00,Wunderground v.1.15,2013-03-15 14:23:00,
2013-03-15 09:28:00,45.7,34.2,29.90,West,266,10.0,11.0,64,0.00,,,0.00,Wunderground v.1.15,2013-03-15 14:28:00,
2013-03-15 09:33:00,46.5,34.6,29.90,WSW,258,9.0,11.0,63,0.00,,,0.00,Wunderground v.1.15,2013-03-15 14:33:00,
2013-03-15 09:39:00,47.3,34.1,29.90,West,259,10.0,13.0,60,0.00,,,0.00,Wunderground v.1.15,2013-03-15 14:39:00,
2013-03-15 09:44:00,47.9,34.3,29.90,West,259,11.0,13.0,59,0.00,,,0.00,Wunderground v.1.15,2013-03-15 14:44:00,
2013-03-15 09:50:00,48.4,34.3,29.90,West,259,10.0,10.0,58,0.00,,,0.00,Wunderground v.1.15,2013-03-15 14:50:00,
2013-03-15 09:55:00,48.9,34.3,29.90,West,259,8.0,10.0,57,0.00,,,0.00,Wunderground v.1.15,2013-03-15 14:55:00,
2013-03-15 10:00:00,49.3,33.8,29.90,West,259,7.0,7.0,55,0.00,,,0.00,Wunderground v.1.15,2013-03-15 15:00:00,
2013-03-15 10:06:00,49.9,33.9,29.90,West,259,6.0,7.0,54,0.00,,,0.00,Wunderground v.1.15,2013-03-15 15:06:00,
2013-03-15 10:12:00,50.7,34.2,29.90,West,261,8.0,15.0,53,0.00,,,0.00,Wunderground v.1.15,2013-03-15 15:12:00,
2013-03-15 10:18:00,51.6,34.5,29.90,West,266,11.0,15.0,52,0.00,,,0.00,Wunderground v.1.15,2013-03-15 15:18:00,
2013-03-15 10:23:00,52.2,34.6,29.89,West,272,11.0,11.0,51,0.00,,,0.00,Wunderground v.1.15,2013-03-15 15:23:00,
2013-03-15 10:28:00,52.6,34.5,29.89,West,269,10.0,12.0,50,0.00,,,0.00,Wunderground v.1.15,2013-03-15 15:28:00,
2013-03-15 10:34:00,53.5,34.8,29.89,West,262,9.0,10.0,49,0.00,,,0.00,Wunderground v.1.15,2013-03-15 15:34:00,
2013-03-15 10:39:00,54.2,34.4,29.89,WSW,254,9.0,11.0,47,0.00,,,0.00,Wunderground v.1.15,2013-03-15 15:39:00,
2013-03-15 10:45:00,54.9,35.0,29.89,WSW,257,10.0,11.0,47,0.00,,,0.00,Wunderground v.1.15,2013-03-15 15:45:00,
2013-03-15 10:50:00,55.4,34.9,29.88,WSW,247,9.0,9.0,46,0.00,,,0.00,Wunderground v.1.15,2013-03-15 15:50:00,
2013-03-15 10:56:00,55.8,35.3,29.88,WSW,240,8.0,10.0,46,0.00,,,0.00,Wunderground v.1.15,2013-03-15 15:56:00,
2013-03-15 11:02:00,56.4,35.3,29.88,WSW,251,8.0,10.0,45,0.00,,,0.00,Wunderground v.1.15,2013-03-15 16:02:00,
2013-03-15 11:08:00,57.1,35.4,29.88,WSW,254,8.0,10.0,44,0.00,,,0.00,Wunderground v.1.15,2013-03-15 16:08:00,
2013-03-15 11:13:00,58.1,35.7,29.88,WSW,253,8.0,9.0,43,0.00,,,0.00,Wunderground v.1.15,2013-03-15 16:13:00,
2013-03-15 11:19:00,59.2,36.1,29.88,WSW,250,7.0,9.0,42,0.00,,,0.00,Wunderground v.1.15,2013-03-15 16:19:00,
2013-03-15 11:24:00,59.9,35.5,29.88,SW,230,7.0,9.0,40,0.00,,,0.00,Wunderground v.1.15,2013-03-15 16:24:00,
2013-03-15 11:29:00,60.6,36.1,29.87,SW,230,7.0,9.0,40,0.00,,,0.00,Wunderground v.1.15,2013-03-15 16:29:00,
2013-03-15 11:35:00,61.5,35.6,29.86,SW,230,6.0,8.0,38,0.00,,,0.00,Wunderground v.1.15,2013-03-15 16:35:00,
2013-03-15 11:40:00,61.9,36.0,29.86,SW,236,6.0,7.0,38,0.00,,,0.00,Wunderground v.1.15,2013-03-15 16:40:00,
2013-03-15 11:46:00,62.5,36.5,29.86,SW,233,6.0,8.0,38,0.00,,,0.00,Wunderground v.1.15,2013-03-15 16:46:00,
2013-03-15 11:51:00,63.0,36.3,29.86,SW,233,6.0,6.0,37,0.00,,,0.00,Wunderground v.1.15,2013-03-15 16:51:00,
2013-03-15 11:57:00,63.6,36.8,29.85,SW,233,4.0,6.0,37,0.00,,,0.00,Wunderground v.1.15,2013-03-15 16:57:00,
2013-03-15 12:03:00,64.4,36.8,29.85,SW,233,4.0,6.0,36,0.00,,,0.00,Wunderground v.1.15,2013-03-15 17:03:00,
2013-03-15 12:09:00,65.0,35.9,29.85,SW,233,5.0,6.0,34,0.00,,,0.00,Wunderground v.1.15,2013-03-15 17:09:00,
2013-03-15 12:14:00,65.7,36.5,29.85,SW,236,5.0,8.0,34,0.00,,,0.00,Wunderground v.1.15,2013-03-15 17:14:00,
2013-03-15 12:19:00,66.1,36.9,29.86,WSW,246,7.0,11.0,34,0.00,,,0.00,Wunderground v.1.15,2013-03-15 17:19:00,
2013-03-15 12:25:00,66.3,36.3,29.85,WSW,242,10.0,12.0,33,0.00,,,0.00,Wunderground v.1.15,2013-03-15 17:25:00,
2013-03-15 12:30:00,66.7,35.1,29.85,WSW,237,10.0,10.0,31,0.00,,,0.00,Wunderground v.1.15,2013-03-15 17:30:00,
2013-03-15 12:35:00,67.2,36.3,29.85,WSW,237,8.0,10.0,32,0.00,,,0.00,Wunderground v.1.15,2013-03-15 17:35:00,
2013-03-15 12:40:00,67.6,35.9,29.85,WSW,247,8.0,8.0,31,0.00,,,0.00,Wunderground v.1.15,2013-03-15 17:40:00,
2013-03-15 12:46:00,68.5,36.7,29.85,SW,234,7.0,9.0,31,0.00,,,0.00,Wunderground v.1.15,2013-03-15 17:46:00,
2013-03-15 12:52:00,68.6,35.9,29.84,SW,228,7.0,7.0,30,0.00,,,0.00,Wunderground v.1.15,2013-03-15 17:52:00,
2013-03-15 12:57:00,69.0,36.3,29.84,SW,228,6.0,7.0,30,0.00,,,0.00,Wunderground v.1.15,2013-03-15 17:57:00,
2013-03-15 13:03:00,69.4,35.7,29.83,WSW,251,5.0,7.0,29,0.00,,,0.00,Wunderground v.1.15,2013-03-15 18:03:00,
2013-03-15 13:08:00,69.5,35.8,29.83,SW,229,7.0,9.0,29,0.00,,,0.00,Wunderground v.1.15,2013-03-15 18:08:00,
2013-03-15 13:13:00,69.6,35.0,29.83,WSW,255,7.0,10.0,28,0.00,,,0.00,Wunderground v.1.15,2013-03-15 18:13:00,
2013-03-15 13:19:00,69.7,35.1,29.83,WSW,249,8.0,10.0,28,0.00,,,0.00,Wunderground v.1.15,2013-03-15 18:19:00,
2013-03-15 13:24:00,69.8,35.2,29.82,WSW,246,7.0,10.0,28,0.00,,,0.00,Wunderground v.1.15,2013-03-15 18:24:00,
2013-03-15 13:29:00,69.6,35.0,29.82,WSW,253,9.0,13.0,28,0.00,,,0.00,Wunderground v.1.15,2013-03-15 18:29:00,
2013-03-15 13:35:00,69.5,34.9,29.82,WSW,258,11.0,11.0,28,0.00,,,0.00,Wunderground v.1.15,2013-03-15 18:35:00,
2013-03-15 13:40:00,69.5,34.9,29.82,West,262,11.0,11.0,28,0.00,,,0.00,Wunderground v.1.15,2013-03-15 18:40:00,
2013-03-15 13:46:00,69.6,35.0,29.82,West,273,10.0,11.0,28,0.00,,,0.00,Wunderground v.1.15,2013-03-15 18:46:00,
2013-03-15 13:52:00,69.9,36.2,29.82,WSW,252,8.0,11.0,29,0.00,,,0.00,Wunderground v.1.15,2013-03-15 18:52:00,
2013-03-15 13:58:00,70.4,35.7,29.81,West,259,9.0,11.0,28,0.00,,,0.00,Wunderground v.1.15,2013-03-15 18:58:00,
2013-03-15 14:03:00,71.2,37.3,29.81,WSW,238,8.0,12.0,29,0.00,,,0.00,Wunderground v.1.15,2013-03-15 19:03:00,
2013-03-15 14:09:00,71.5,36.7,29.80,SW,231,9.0,15.0,28,0.00,,,0.00,Wunderground v.1.15,2013-03-15 19:09:00,
2013-03-15 14:15:00,71.6,35.8,29.80,SW,229,10.0,14.0,27,0.00,,,0.00,Wunderground v.1.15,2013-03-15 19:15:00,
2013-03-15 14:21:00,71.3,34.6,29.80,WSW,238,11.0,16.0,26,0.00,,,0.00,Wunderground v.1.15,2013-03-15 19:21:00,
2013-03-15 14:27:00,71.9,35.1,29.79,WSW,248,13.0,16.0,26,0.00,,,0.00,Wunderground v.1.15,2013-03-15 19:27:00,
2013-03-15 14:33:00,72.1,34.3,29.78,WSW,250,13.0,16.0,25,0.00,,,0.00,Wunderground v.1.15,2013-03-15 19:33:00,
2013-03-15 14:38:00,72.4,34.6,29.78,WSW,237,14.0,16.0,25,0.00,,,0.00,Wunderground v.1.15,2013-03-15 19:38:00,
2013-03-15 14:43:00,72.4,34.6,29.78,WSW,246,12.0,15.0,25,0.00,,,0.00,Wunderground v.1.15,2013-03-15 19:43:00,
2013-03-15 14:49:00,72.5,34.7,29.78,SW,234,12.0,18.0,25,0.00,,,0.00,Wunderground v.1.15,2013-03-15 19:49:00,
2013-03-15 14:54:00,72.8,33.9,29.78,WSW,240,13.0,17.0,24,0.00,,,0.00,Wunderground v.1.15,2013-03-15 19:54:00,
2013-03-15 15:00:00,73.2,33.2,29.77,SW,224,14.0,14.0,23,0.00,,,0.00,Wunderground v.1.15,2013-03-15 20:00:00,
2013-03-15 15:05:00,73.4,33.3,29.77,WSW,250,14.0,20.0,23,0.00,,,0.00,Wunderground v.1.15,2013-03-15 20:05:00,
2013-03-15 15:10:00,73.4,33.3,29.77,West,259,15.0,18.0,23,0.00,,,0.00,Wunderground v.1.15,2013-03-15 20:10:00,
2013-03-15 15:15:00,74.1,31.6,29.77,West,279,15.0,18.0,21,0.00,,,0.00,Wunderground v.1.15,2013-03-15 20:15:00,
2013-03-15 15:21:00,73.8,31.4,29.77,West,275,16.0,20.0,21,0.00,,,0.00,Wunderground v.1.15,2013-03-15 20:21:00,
2013-03-15 15:27:00,74.0,32.7,29.76,WSW,253,19.0,22.0,22,0.00,,,0.00,Wunderground v.1.15,2013-03-15 20:27:00,
2013-03-15 15:32:00,74.0,32.7,29.76,WNW,285,18.0,18.0,22,0.00,,,0.00,Wunderground v.1.15,2013-03-15 20:32:00,
2013-03-15 15:37:00,73.7,32.5,29.76,WNW,285,17.0,19.0,22,0.00,,,0.00,Wunderground v.1.15,2013-03-15 20:37:00,
2013-03-15 15:42:00,74.0,32.7,29.76,West,263,16.0,17.0,22,0.00,,,0.00,Wunderground v.1.15,2013-03-15 20:42:00,
2013-03-15 15:48:00,74.5,33.1,29.76,WSW,257,17.0,21.0,22,0.00,,,0.00,Wunderground v.1.15,2013-03-15 20:48:00,
2013-03-15 15:54:00,74.0,32.7,29.76,West,273,19.0,22.0,22,0.00,,,0.00,Wunderground v.1.15,2013-03-15 20:54:00,
2013-03-15 15:59:00,74.0,33.8,29.76,West,278,19.0,22.0,23,0.00,,,0.00,Wunderground v.1.15,2013-03-15 20:59:00,
2013-03-15 16:04:00,74.4,34.2,29.76,West,263,17.0,18.0,23,0.00,,,0.00,Wunderground v.1.15,2013-03-15 21:04:00,
2013-03-15 16:10:00,74.7,34.4,29.75,West,267,16.0,16.0,23,0.00,,,0.00,Wunderground v.1.15,2013-03-15 21:10:00,
2013-03-15 16:16:00,74.8,33.4,29.75,West,273,14.0,18.0,22,0.00,,,0.00,Wunderground v.1.15,2013-03-15 21:16:00,
2013-03-15 16:21:00,74.7,34.4,29.75,West,275,14.0,16.0,23,0.00,,,0.00,Wunderground v.1.15,2013-03-15 21:21:00,
2013-03-15 16:26:00,74.6,33.2,29.76,West,262,16.0,23.0,22,0.00,,,0.00,Wunderground v.1.15,2013-03-15 21:26:00,
2013-03-15 16:31:00,74.6,33.2,29.75,WSW,257,16.0,19.0,22,0.00,,,0.00,Wunderground v.1.15,2013-03-15 21:31:00,
2013-03-15 16:37:00,74.9,33.5,29.75,WSW,243,14.0,19.0,22,0.00,,,0.00,Wunderground v.1.15,2013-03-15 21:37:00,